Weather History for KSTS - September, 2011

Change the Weather History Date:

Sunday, September 18, 2011

  Actual Average Record
Temperature  
Mean Temperature 71 °F 66 °F  
Max Temperature 93 °F 83 °F 101 °F (2000)
Min Temperature 48 °F 49 °F 41 °F (2008)
Degree Days  
Heating Degree Days 0    
Month to date heating degree days 7  
Since 1 July heating degree days 29  
Cooling Degree Days 6    
Month to date cooling degree days 43  
Year to date cooling degree days 260  
Growing Degree Days 20 (Base 50)    
Moisture  
Dew Point 47 °F    
Average Humidity 57    
Maximum Humidity 93    
Minimum Humidity 20    
Precipitation  
Precipitation 0.00 in 0.00 in 0.10 in (2014)
Month to date precipitation 0.01 0.12  
Year to date precipitation 22.45 22.30  
Since 1 July precipitation 0.01 0.21  
Sea Level Pressure  
Sea Level Pressure 29.99 in    
Wind  
Wind Speed 2 mph (SSW)    
Max Wind Speed 12 mph    
Max Gust Speed 15 mph    
Visibility 10 miles    
Events      
T = Trace of Precipitation, MM = Missing Value Source: NWS Daily Summary

Daily Weather History Graph

Daily Weather History Graph

Search for Another Location

Airport or City:

Trip Planner

Search our weather history database for the weather conditions in past years. The results will help you decide how hot, cold, wet, or windy it might be!

Date:

Astronomy

Sep. 18, 2011 Rise Set
Actual Time 6:55 AM PDT 7:14 PM PDT
Civil Twilight 6:28 AM PDT 7:41 PM PDT
Nautical Twilight 5:57 AM PDT 8:12 PM PDT
Astronomical Twilight 5:25 AM PDT 8:44 PM PDT
Moon 10:39 PM PDT (9/18) 12:52 PM PDT (9/18)
Length of Visible Light 13h 12m
Length of Day
12h 19m
Waning Gibbous, 67% of the Moon is Illuminated
Sep 18
Waning Gibbous
Sep 20
Last Quarter
Sep 27
New
Oct 3
First Quarter
Oct 11
Full

Hourly Weather History & Observations

Time (PDT) Temp. Dew Point Humidity Pressure Visibility Wind Dir Wind Speed Gust Speed Precip Events Conditions
12:53 AM 54.0 °F 48.9 °F 83% 30.00 in 10.0 mi Calm Calm - N/A   Clear
2:53 AM 52.0 °F 46.9 °F 83% 30.00 in 10.0 mi SSE 3.5 mph - N/A   Clear
3:53 AM 52.0 °F 48.0 °F 86% 30.00 in 10.0 mi Calm Calm - N/A   Clear
4:53 AM 50.0 °F 46.0 °F 86% 30.01 in 10.0 mi Calm Calm - N/A   Clear
5:53 AM 50.0 °F 46.9 °F 89% 30.02 in 10.0 mi Calm Calm - N/A   Clear
6:53 AM 48.9 °F 46.9 °F 93% 30.04 in 10.0 mi Calm Calm - N/A   Clear
8:53 AM 59.0 °F 48.9 °F 69% 30.06 in 10.0 mi Calm Calm - N/A   Clear
9:53 AM 66.0 °F 46.9 °F 50% 30.05 in 10.0 mi Calm Calm - N/A   Clear
10:53 AM 73.9 °F 48.0 °F 40% 30.05 in 10.0 mi NW 3.5 mph - N/A   Clear
11:53 AM 80.1 °F 48.0 °F 32% 30.04 in 10.0 mi Calm Calm - N/A   Clear
1:53 PM 87.1 °F 50.0 °F 28% 29.99 in 10.0 mi Calm Calm - N/A   Clear
2:53 PM 91.9 °F 46.9 °F 21% 29.97 in 10.0 mi South 5.8 mph - N/A   Clear
3:53 PM 90.0 °F 48.9 °F 24% 29.96 in 10.0 mi SSW 8.1 mph - N/A   Clear
4:53 PM 91.0 °F 45.0 °F 20% 29.94 in 10.0 mi WSW 8.1 mph - N/A   Clear
5:53 PM 88.0 °F 46.0 °F 23% 29.94 in 10.0 mi SSW 4.6 mph - N/A   Clear
7:53 PM 71.1 °F 46.9 °F 42% 29.94 in 10.0 mi SSE 4.6 mph - N/A   Clear
8:53 PM 68.0 °F 46.0 °F 45% 29.96 in 10.0 mi South 3.5 mph - N/A   Clear
9:53 PM 64.0 °F 46.0 °F 52% 29.97 in 10.0 mi Calm Calm - N/A   Clear
10:53 PM 61.0 °F 46.9 °F 60% 29.97 in 10.0 mi Calm Calm - N/A   Clear
11:53 PM 57.9 °F 48.0 °F 70% 29.97 in 10.0 mi Calm Calm - N/A   Clear